FW5225 Weather Reports


Display with metric or nautical units.
time (UTC)temp
F
wind
direction
speed
MPH
gust
MPH
rain 1hr
in
rain 24hr
in
rain mn
in
humidity
%
barometer
mb
20260506185038 80 140 1.0 6.0 0.00 0.00 0.00 23 1013.9
20260506184539 80 264 2.0 5.0 0.00 0.00 0.00 23 1013.9
20260506184036 80 193 1.0 6.0 0.00 0.00 0.00 23 1014.0
20260506183535 80 183 1.0 6.0 0.00 0.00 0.00 23 1014.0
20260506183033 80 304 1.0 6.0 0.00 0.00 0.00 23 1014.1
20260506182533 80 163 1.0 6.0 0.00 0.00 0.00 23 1014.2
20260506182032 79 184 2.0 6.0 0.00 0.00 0.00 23 1014.2
20260506181541 80 278 2.0 6.0 0.00 0.00 0.00 22 1014.2
20260506181030 80 94 2.0 6.0 0.00 0.00 0.00 22 1014.3
20260506180529 80 236 2.0 5.0 0.00 0.00 0.00 23 1014.3
20260506180028 80 200 1.0 6.0 0.00 0.00 0.00 22 1014.4
20260506175529 79 159 3.0 6.0 0.00 0.00 0.00 22 1014.3
20260506175025 79 219 1.0 5.0 0.00 0.00 0.00 23 1014.3
20260506174526 79 190 1.0 6.0 0.00 0.00 0.00 24 1014.3
20260506174026 78 191 2.0 6.0 0.00 0.00 0.00 24 1014.3
20260506173525 78 218 2.0 5.0 0.00 0.00 0.00 25 1014.4
20260506173031 78 209 2.0 5.0 0.00 0.00 0.00 25 1014.3
20260506172519 78 221 1.0 6.0 0.00 0.00 0.00 26 1014.3
20260506172017 77 167 2.0 7.0 0.00 0.00 0.00 26 1014.3
20260506171519 77 153 2.0 5.0 0.00 0.00 0.00 25 1014.3
20260506171017 77 177 0.0 6.0 0.00 0.00 0.00 26 1014.3
20260506170514 77 92 1.0 6.0 0.00 0.00 0.00 25 1014.3
20260506170012 77 152 1.0 5.0 0.00 0.00 0.00 27 1014.3
20260506165515 76 143 1.0 5.0 0.00 0.00 0.00 27 1014.3
20260506165010 75 92 1.0 5.0 0.00 0.00 0.00 26 1014.3
20260506164510 75 188 1.0 4.0 0.00 0.00 0.00 27 1014.3
20260506164006 74 204 2.0 4.0 0.00 0.00 0.00 27 1014.3
20260506163505 74 155 2.0 5.0 0.00 0.00 0.00 28 1014.3
20260506163009 74 102 1.0 5.0 0.00 0.00 0.00 28 1014.3
20260506162503 74 57 0.0 4.0 0.00 0.00 0.00 28 1014.3
20260506162002 73 181 1.0 4.0 0.00 0.00 0.00 29 1014.3
20260506161600 72 217 1.0 4.0 0.00 0.00 0.00 30 1014.2
20260506161058 71 148 0.0 8.0 0.00 0.00 0.00 30 1014.2
20260506160557 71 101 4.0 6.0 0.00 0.00 0.00 32 1014.1
20260506160056 70 74 1.0 5.0 0.00 0.00 0.00 34 1014.2
20260506155558 70 35 2.0 5.0 0.00 0.00 0.00 33 1014.2
20260506155057 70 115 1.0 5.0 0.00 0.00 0.00 34 1014.3
20260506154609 70 51 2.0 6.0 0.00 0.00 0.00 34 1014.2
20260506154051 70 52 2.0 7.0 0.00 0.00 0.00 33 1014.3
20260506153550 71 12 2.0 7.0 0.00 0.00 0.00 31 1014.3
20260506153049 71 11 2.0 5.0 0.00 0.00 0.00 32 1014.3
20260506152547 71 32 0.0 6.0 0.00 0.00 0.00 32 1014.3
20260506152045 71 89 1.0 4.0 0.00 0.00 0.00 31 1014.3
20260506151544 71 76 1.0 3.0 0.00 0.00 0.00 31 1014.3
20260506151043 70 151 0.0 2.0 0.00 0.00 0.00 32 1014.3
20260506150541 70 115 0.0 2.0 0.00 0.00 0.00 33 1014.3
20260506150040 69 136 0.0 1.0 0.00 0.00 0.00 34 1014.2
20260506145540 68 148 0.0 2.0 0.00 0.00 0.00 35 1014.2
20260506145038 68 124 0.0 2.0 0.00 0.00 0.00 34 1014.2
20260506144542 67 158 0.0 2.0 0.00 0.00 0.00 36 1014.2
20260506144034 66 240 0.0 2.0 0.00 0.00 0.00 37 1014.2
20260506143533 65 166 0.0 2.0 0.00 0.00 0.00 38 1014.1
20260506143032 65 190 0.0 0.0 0.00 0.00 0.00 39 1014.1
20260506142529 64 146 0.0 0.0 0.00 0.00 0.00 42 1014.1
20260506142029 63 146 0.0 1.0 0.00 0.00 0.00 43 1014.0
20260506141528 63 157 0.0 2.0 0.00 0.00 0.00 45 1014.0
20260506141027 62 151 0.0 2.0 0.00 0.00 0.00 45 1014.0
20260506140525 61 202 0.0 0.0 0.00 0.00 0.00 46 1013.8
20260506140027 60 202 0.0 0.0 0.00 0.00 0.00 48 1013.7
20260506135523 59 250 0.0 0.0 0.00 0.00 0.00 49 1013.7
20260506135023 59 250 0.0 0.0 0.00 0.00 0.00 51 1013.7
20260506134522 58 250 0.0 0.0 0.00 0.00 0.00 52 1013.6
20260506134019 58 250 0.0 0.0 0.00 0.00 0.00 54 1013.6
20260506133520 57 250 0.0 0.0 0.00 0.00 0.00 53 1013.5
20260506133018 57 250 0.0 0.0 0.00 0.00 0.00 53 1013.4
20260506132514 56 250 0.0 0.0 0.00 0.00 0.00 54 1013.4
20260506132017 56 250 0.0 0.0 0.00 0.00 0.00 54 1013.4
20260506131514 56 289 0.0 0.0 0.00 0.00 0.00 54 1013.3
20260506131015 56 289 0.0 0.0 0.00 0.00 0.00 53 1013.2
20260506130513 56 289 0.0 0.0 0.00 0.00 0.00 53 1013.2
20260506130011 56 5 0.0 0.0 0.00 0.00 0.00 53 1013.1
20260506125509 56 344 0.0 0.0 0.00 0.00 0.00 53 1013.1
20260506125008 56 344 0.0 0.0 0.00 0.00 0.00 53 1013.0
20260506124506 56 344 0.0 0.0 0.00 0.00 0.00 52 1012.9
20260506124005 57 344 0.0 0.0 0.00 0.00 0.00 52 1012.8
20260506123504 57 344 0.0 0.0 0.00 0.00 0.00 51 1012.8
20260506123004 57 344 0.0 0.0 0.00 0.00 0.00 51 1012.7
20260506122502 57 344 0.0 0.0 0.00 0.00 0.00 51 1012.7
20260506122001 58 342 0.0 0.0 0.00 0.00 0.00 50 1012.6
20260506121600 58 342 0.0 0.0 0.00 0.00 0.00 50 1012.6
20260506121059 58 96 0.0 0.0 0.00 0.00 0.00 50 1012.5
20260506120601 59 81 0.0 1.0 0.00 0.00 0.00 48 1012.5
20260506120057 59 107 0.0 2.0 0.00 0.00 0.00 47 1012.5
20260506115559 59 82 0.0 2.0 0.00 0.00 0.00 46 1012.4
20260506115055 60 315 0.0 2.0 0.00 0.00 0.00 45 1012.4
20260506114603 60 96 0.0 0.0 0.00 0.00 0.00 44 1012.4
20260506114052 61 71 0.0 0.0 0.00 0.00 0.00 44 1012.4
20260506113551 61 71 0.0 2.0 0.00 0.00 0.00 42 1012.4
20260506113050 61 70 0.0 2.0 0.00 0.00 0.00 42 1012.4
20260506112549 62 142 0.0 2.0 0.00 0.00 0.00 41 1012.3
20260506112053 62 148 0.0 2.0 0.00 0.00 0.00 41 1012.3
20260506111547 62 78 0.0 4.0 0.00 0.00 0.00 40 1012.2
20260506111048 62 333 1.0 3.0 0.00 0.00 0.00 41 1012.1
20260506110546 62 317 0.0 3.0 0.00 0.00 0.00 42 1012.1
20260506110047 63 244 0.0 3.0 0.00 0.00 0.00 40 1012.1
20260506105546 63 238 0.0 3.0 0.00 0.00 0.00 40 1012.1
20260506105046 63 246 0.0 4.0 0.00 0.00 0.00 40 1012.2
20260506104608 62 344 2.0 4.0 0.00 0.00 0.00 39 1012.1
20260506104044 62 62 0.0 2.0 0.00 0.00 0.00 41 1012.2
20260506103542 63 317 0.0 2.0 0.00 0.00 0.00 41 1012.1
20260506103042 63 260 0.0 2.0 0.00 0.00 0.00 41 1012.0
20260506102540 64 61 0.0 1.0 0.00 0.00 0.00 40 1012.0
20260506102039 64 61 0.0 2.0 0.00 0.00 0.00 40 1012.0
20260506101541 65 95 0.0 6.0 0.00 0.00 0.00 38 1011.9
20260506101036 65 88 1.0 6.0 0.00 0.00 0.00 37 1011.8
20260506100534 65 12 1.0 6.0 0.00 0.00 0.00 36 1011.8
20260506095532 66 348 3.0 7.0 0.00 0.00 0.00 35 1011.7
20260506095032 67 339 1.0 9.0 0.00 0.00 0.00 35 1011.6
20260506094534 67 304 4.0 11.0 0.00 0.00 0.00 34 1011.5
20260506094032 67 292 5.0 11.0 0.00 0.00 0.00 34 1011.4
20260506093529 67 319 6.0 11.0 0.00 0.00 0.00 34 1011.4
20260506093028 67 280 6.0 10.0 0.00 0.00 0.00 34 1011.3
20260506092530 67 308 5.0 11.0 0.00 0.00 0.00 34 1011.3
20260506092030 67 302 4.0 11.0 0.00 0.00 0.00 34 1011.4
20260506091529 67 311 5.0 10.0 0.00 0.00 0.00 34 1011.4
20260506091030 67 316 6.0 10.0 0.00 0.00 0.00 34 1011.3
20260506090530 67 324 7.0 10.0 0.00 0.00 0.00 34 1011.3
20260506090035 67 310 5.0 9.0 0.00 0.00 0.00 35 1011.3
20260506085529 67 295 5.0 10.0 0.00 0.00 0.00 35 1011.3
20260506085027 67 340 5.0 11.0 0.00 0.00 0.00 34 1011.3
20260506084527 67 302 7.0 11.0 0.00 0.00 0.00 34 1011.2
20260506084031 67 270 4.0 12.0 0.00 0.00 0.00 35 1011.2
20260506083527 67 310 6.0 12.0 0.00 0.00 0.00 34 1011.3
20260506083037 67 320 5.0 11.0 0.00 0.00 0.00 35 1011.2
20260506082525 67 286 5.0 11.0 0.00 0.00 0.00 35 1011.2
20260506082026 67 319 6.0 11.0 0.00 0.00 0.00 35 1011.3
20260506081525 67 309 5.0 10.0 0.00 0.00 0.00 35 1011.2
20260506081029 67 294 7.0 12.0 0.00 0.00 0.00 34 1011.2
20260506080525 67 334 7.0 12.0 0.00 0.00 0.00 35 1011.3
20260506073524 67 310 8.0 14.0 0.00 0.00 0.00 34 1011.3
20260506073022 67 290 5.0 16.0 0.00 0.00 0.00 34 1011.3
20260506072525 67 285 8.0 17.0 0.00 0.00 0.00 34 1011.3
20260506072021 67 331 10.0 17.0 0.00 0.00 0.00 34 1011.3
20260506071522 67 331 9.0 15.0 0.00 0.00 0.00 35 1011.2
20260506071019 67 284 6.0 14.0 0.00 0.00 0.00 35 1011.2
20260506070519 67 300 9.0 16.0 0.00 0.00 0.00 35 1011.1
20260506062015 68 281 4.0 14.0 0.00 0.00 0.00 34 1010.9
20260506061515 68 291 6.0 14.0 0.00 0.00 0.00 34 1011.0
20260506061016 68 307 5.0 12.0 0.00 0.00 0.00 34 1010.9
20260506060514 68 283 6.0 12.0 0.00 0.00 0.00 34 1010.9
20260506051009 69 298 4.0 9.0 0.00 0.00 0.00 32 1010.6
20260506050509 68 232 3.0 9.0 0.00 0.00 0.00 32 1010.6
20260506045008 69 254 2.0 10.0 0.00 0.00 0.00 32 1010.4
20260506044508 69 288 5.0 10.0 0.00 0.00 0.00 32 1010.4
20260506044006 69 257 3.0 8.0 0.00 0.00 0.00 32 1010.4
20260506043509 69 292 3.0 8.0 0.00 0.00 0.00 31 1010.3
20260506043011 69 265 4.0 8.0 0.00 0.00 0.00 32 1010.2
20260506042508 69 323 4.0 10.0 0.00 0.00 0.00 31 1010.3
20260506042005 69 285 5.0 9.0 0.00 0.00 0.00 31 1010.2
20260506041505 69 230 3.0 6.0 0.00 0.00 0.00 31 1010.1
20260506041005 69 288 2.0 7.0 0.00 0.00 0.00 31 1010.1
20260506040505 69 317 3.0 9.0 0.00 0.00 0.00 30 1010.1
20260506040005 69 287 4.0 11.0 0.00 0.00 0.00 30 1010.0
20260506035505 69 283 4.0 11.0 0.00 0.00 0.00 30 1009.8
20260506035005 69 278 3.0 10.0 0.00 0.00 0.00 30 1009.8
20260506034504 69 265 2.0 10.0 0.00 0.00 0.00 30 1009.8
20260506034004 70 308 3.0 7.0 0.00 0.00 0.00 30 1009.7
20260506033503 70 278 3.0 7.0 0.00 0.00 0.00 30 1009.7
20260506033005 70 295 2.0 7.0 0.00 0.00 0.00 30 1009.6
20260506032503 70 233 2.0 8.0 0.00 0.00 0.00 30 1009.6
20260506032003 70 275 2.0 8.0 0.00 0.00 0.00 29 1009.5
20260506031503 70 240 2.0 8.0 0.00 0.00 0.00 29 1009.4
20260506031003 70 235 3.0 9.0 0.00 0.00 0.00 29 1009.2
20260506030503 70 284 4.0 11.0 0.00 0.00 0.00 29 1009.2
20260506030003 70 258 4.0 10.0 0.00 0.00 0.00 29 1009.2
20260506025506 70 263 4.0 9.0 0.00 0.00 0.00 29 1009.1
20260506025003 70 263 1.0 9.0 0.00 0.00 0.00 28 1009.0
20260506024504 70 278 3.0 7.0 0.00 0.00 0.00 28 1008.9
20260506024002 71 205 3.0 7.0 0.00 0.00 0.00 28 1008.8
20260506023502 71 251 2.0 11.0 0.00 0.00 0.00 28 1008.8
20260506023002 71 265 2.0 11.0 0.00 0.00 0.00 28 1008.8
20260506022502 71 225 3.0 8.0 0.00 0.00 0.00 28 1008.8
20260506022001 71 293 3.0 8.0 0.00 0.00 0.00 28 1008.7
20260506021503 71 260 1.0 12.0 0.00 0.00 0.00 28 1008.6
20260506021001 72 290 2.0 12.0 0.00 0.00 0.00 27 1008.5
20260506020503 72 192 2.0 6.0 0.00 0.00 0.00 27 1008.4
20260506020002 72 261 2.0 7.0 0.00 0.00 0.00 26 1008.4
20260506015503 72 254 3.0 8.0 0.00 0.00 0.00 26 1008.3
20260506015001 73 269 3.0 8.0 0.00 0.00 0.00 26 1008.4
20260506014600 73 241 4.0 8.0 0.00 0.00 0.00 26 1008.4
20260506014100 73 208 3.0 9.0 0.00 0.00 0.00 26 1008.3
20260506013600 73 194 4.0 9.0 0.00 0.00 0.00 26 1008.2
20260506013100 74 249 4.0 10.0 0.00 0.00 0.00 25 1008.2
20260506012600 74 264 6.0 10.0 0.00 0.00 0.00 25 1008.1
20260506012103 75 265 4.0 10.0 0.00 0.00 0.00 25 1008.1
20260506011559 75 207 2.0 10.0 0.00 0.00 0.00 25 1007.9
20260506011059 75 274 2.0 8.0 0.00 0.00 0.00 25 1007.9
20260506010559 75 215 3.0 7.0 0.00 0.00 0.00 24 1007.9
20260506005559 75 194 2.0 9.0 0.00 0.00 0.00 24 1007.7
20260506005058 76 188 3.0 9.0 0.00 0.00 0.00 24 1007.7
20260506004557 76 226 2.0 9.0 0.00 0.00 0.00 24 1007.7
20260506004057 76 234 2.0 9.0 0.00 0.00 0.00 24 1007.6
20260506003601 76 262 3.0 7.0 0.00 0.00 0.00 23 1007.7
20260506003107 76 302 1.0 12.0 0.00 0.00 0.00 23 1007.6
20260506002601 76 257 4.0 12.0 0.00 0.00 0.00 23 1007.5
20260506002057 77 204 4.0 11.0 0.00 0.00 0.00 23 1007.5
20260506001616 77 250 4.0 11.0 0.00 0.00 0.00 23 1007.5
20260506001057 77 225 5.0 11.0 0.00 0.00 0.00 23 1007.5
20260506000557 77 220 2.0 10.0 0.00 0.00 0.00 23 1007.4
20260506000056 77 195 3.0 8.0 0.00 0.00 0.00 23 1007.5
20260505235556 77 224 2.0 10.0 0.00 0.00 0.00 24 1007.4
20260505235056 77 253 4.0 11.0 0.00 0.00 0.00 24 1007.3
20260505234610 76 284 4.0 13.0 0.00 0.00 0.00 25 1007.3
20260505234055 77 190 4.0 11.0 0.00 0.00 0.00 25 1007.3
20260505233556 77 313 5.0 11.0 0.00 0.00 0.00 25 1007.3
20260505233055 77 232 3.0 11.0 0.00 0.00 0.00 25 1007.3
20260505232554 77 267 5.0 11.0 0.00 0.00 0.00 24 1007.2
20260505232056 76 202 4.0 11.0 0.00 0.00 0.00 24 1007.2
20260505231554 76 259 5.0 12.0 0.00 0.00 0.00 24 1007.2
20260505231053 75 296 4.0 9.0 0.00 0.00 0.00 25 1007.4
20260505230553 76 282 3.0 13.0 0.00 0.00 0.00 25 1007.3
20260505230054 76 246 6.0 13.0 0.00 0.00 0.00 24 1007.5
20260505225556 77 221 4.0 10.0 0.00 0.00 0.00 24 1007.4
20260505225052 77 181 2.0 10.0 0.00 0.00 0.00 24 1007.5
20260505224552 77 255 4.0 11.0 0.00 0.00 0.00 23 1007.4
20260505224050 77 240 3.0 9.0 0.00 0.00 0.00 23 1007.5
20260505223550 77 257 4.0 12.0 0.00 0.00 0.00 23 1007.6
20260505223104 78 279 6.0 12.0 0.00 0.00 0.00 23 1007.7
20260505222549 78 279 1.0 12.0 0.00 0.00 0.00 25 1007.7
20260505222048 78 226 2.0 12.0 0.00 0.00 0.00 25 1007.8
20260505221548 78 295 4.0 10.0 0.00 0.00 0.00 24 1007.8
20260505221047 78 308 1.0 11.0 0.00 0.00 0.00 25 1007.9
20260505220546 77 191 3.0 12.0 0.00 0.00 0.00 25 1008.1
20260505220048 78 259 5.0 12.0 0.00 0.00 0.00 24 1008.0
20260505215545 78 231 2.0 12.0 0.00 0.00 0.00 25 1008.2
20260505215045 78 216 3.0 9.0 0.00 0.00 0.00 25 1008.2
20260505214554 78 225 4.0 10.0 0.00 0.00 0.00 25 1008.2
20260505214045 78 196 1.0 12.0 0.00 0.00 0.00 25 1008.4
20260505213544 79 205 5.0 11.0 0.00 0.00 0.00 24 1008.5
20260505213044 78 237 2.0 9.0 0.00 0.00 0.00 26 1008.4
20260505212543 77 257 2.0 13.0 0.00 0.00 0.00 26 1008.5
20260505212043 77 277 4.0 15.0 0.00 0.00 0.00 25 1008.7
20260505211549 78 297 7.0 15.0 0.00 0.00 0.00 24 1008.8
20260505211041 78 146 3.0 9.0 0.00 0.00 0.00 26 1008.7
20260505210542 78 255 1.0 10.0 0.00 0.00 0.00 26 1008.8
20260505210041 78 309 4.0 15.0 0.00 0.00 0.00 25 1009.0
20260505205541 78 209 4.0 12.0 0.00 0.00 0.00 25 1009.0
20260505205041 78 167 3.0 12.0 0.00 0.00 0.00 26 1009.0
20260505204540 77 216 3.0 12.0 0.00 0.00 0.00 27 1009.0
20260505204040 76 289 3.0 10.0 0.00 0.00 0.00 28 1009.0
20260505203539 76 257 3.0 10.0 0.00 0.00 0.00 28 1009.2
20260505203050 77 261 1.0 11.0 0.00 0.00 0.00 27 1009.1
20260505202539 77 239 3.0 12.0 0.00 0.00 0.00 27 1009.1
20260505202039 78 169 5.0 12.0 0.00 0.00 0.00 26 1009.1
20260505201538 78 302 2.0 7.0 0.00 0.00 0.00 27 1009.1
20260505201037 78 223 1.0 9.0 0.00 0.00 0.00 26 1009.1
20260505200537 78 240 3.0 10.0 0.00 0.00 0.00 28 1009.1
20260505200034 77 186 3.0 10.0 0.00 0.00 0.00 28 1009.2
20260505195536 77 195 2.0 9.0 0.00 0.00 0.00 28 1009.3
20260505195033 76 219 2.0 10.0 0.00 0.00 0.00 29 1009.3
20260505194533 76 235 2.0 10.0 0.00 0.00 0.00 29 1009.6
20260505194034 76 269 3.0 10.0 0.00 0.00 0.00 29 1009.5
20260505193532 76 271 4.0 8.0 0.00 0.00 0.00 28 1009.6
20260505193032 76 200 2.0 7.0 0.00 0.00 0.00 28 1009.6
20260505192535 75 229 2.0 9.0 0.00 0.00 0.00 29 1009.6
20260505192032 75 188 2.0 12.0 0.00 0.00 0.00 30 1009.7
20260505191535 74 297 4.0 12.0 0.00 0.00 0.00 30 1009.7
20260505191032 75 261 3.0 12.0 0.00 0.00 0.00 29 1009.7
20260505190531 75 220 2.0 10.0 0.00 0.00 0.00 29 1009.7
20260505190036 76 279 4.0 10.0 0.00 0.00 0.00 28 1009.8
20260505185530 76 198 1.0 6.0 0.00 0.00 0.00 29 1009.7